Regional Weather Roundup
Issued by NWS

Home | Current Version | Previous Version | Graphics & Text | Print | Product List | Glossary On
Versions: 1 2 3 4 5 6 7 8 9 10 11 12 13 14 15 16 17 18 19 20 21 22 23 24 25 26 27 28 29 30 31 32 33 34 35 36 37 38 39 40 41 42 43 44 45 46 47 48 49 50
000
ASUS43 KIND 272009
RWRIN

WEATHER ROUNDUP FOR INDIANA
NATIONAL WEATHER SERVICE INDIANAPOLIS IN
400 PM EDT FRI MAR 27 2015

NOTE: "FAIR" INDICATES FEW OR NO CLOUDS BELOW 12,000 FEET WITH NO
SIGNIFICANT WEATHER AND/OR OBSTRUCTIONS TO VISIBILITY.

* - STATION DOES NOT REPORT WEATHER SUCH AS PRECIPITATION OR FOG.

+ - STATION NOT QUALITY CONTROLLED BY THE NATIONAL WEATHER SERVICE.
    USE DATA WITH CAUTION...ESPECIALLY DEWPOINT AND RELATIVE
    HUMIDITY OBSERVATIONS.

INZ001>003-010>013-019-020-272100-
NORTHWEST INDIANA

CITY           SKY/WX    TMP DP  RH WIND       PRES   REMARKS
GARY /AIRPORT/ PTSUNNY   30   9  40 NW22      30.17S WCI  17
KNOX *+          N/A     30  -6  21 N18G28    30.11S WCI  18
LA PORTE +     CLOUDY    29  16  58 N16G23    30.12F WCI  17
MICHIGAN CITY+ LGT SNOW  27  14  59 N17G26    30.14F WCI  14
MONTICELLO +   CLOUDY    29  18  63 N14G20    30.10S WCI  19
RENSSELAER +   CLOUDY    30  21  69 N15G21    30.13S WCI  19
VALPARAISO     LGT SNOW  25  16  68 N12G24    30.13S WCI  14

$$

LMZ046-743>745-272100-
SOUTHERN LAKE MICHIGAN

STATION/POSITION TIME  TEMP WIND        PRES
                       AIR  DIR/SP/G
                 (UTC) (F)  (DEG/KT/KT) (MB)
BURNS HARBOR     2000   26   10/ 21/ 26 1021.0F
MICHIGAN CITY    2000   23  340/ 23/ 27   N/A

$$

INZ004-005-014>016-021>024-272100-
NORTH CENTRAL INDIANA

CITY           SKY/WX    TMP DP  RH WIND       PRES   REMARKS
ELKHART        MOSUNNY   28   1  31 N14G21    30.08F WCI  17
GOSHEN         MOSUNNY   31   9  39 NW18G28   30.06S WCI  19
LOGANSPORT +   CLOUDY    30  14  51 NW13G22   30.09S WCI  20
PERU/GRISSOM   FLURRIES  29  15  54 N16       30.06S WCI  18
ROCHESTER +    PTSUNNY   32  12  43 N16G24    30.09S WCI  21
SOUTH BEND     CLOUDY    27  12  53 NW20G28   30.11S WCI  13
WARSAW +       PTSUNNY   28   7  40 N17G23    30.06S WCI  16

$$

INZ006>009-017-018-025>027-272100-
NORTHEAST INDIANA

CITY           SKY/WX    TMP DP  RH WIND       PRES   REMARKS
ANGOLA *+      SUNNY     28   7  40 N9        30.02F WCI  20
AUBURN +       MOSUNNY   32   3  29 NW10G20   30.03F WCI  24
FORT WAYNE     PTSUNNY   30  10  43 NW12G21   30.04F WCI  20
HUNTINGTON +   CLOUDY    29   6  38 N13G18    30.05S WCI  19

$$

INZ028-029-035-036-043>045-051>053-272100-
WEST CENTRAL INDIANA

CITY           SKY/WX    TMP DP  RH WIND       PRES   REMARKS
CRAWFORDSVL +  CLOUDY    30  12  47 MISG      30.09S
GREENCASTLE +  CLOUDY    32  14  47 NW10G16   30.08S WCI  24
LAFAYETTE      CLOUDY    31  12  45 N14       30.11S WCI  21
TERRE HAUTE    CLOUDY    34  24  67 N10       30.10S WCI  26

$$

INZ030>032-037>040-046>048-054>057-064-065-272100-
CENTRAL INDIANA

CITY           SKY/WX    TMP DP  RH WIND       PRES   REMARKS
ANDERSON       CLOUDY    30  16  55 NW17G23   30.06F WCI  18
CP ATTERBURY + CLOUDY    36  19  51 N14G20    30.06F
COLUMBUS       PTSUNNY   36  18  48 N15G23    30.06F
FISHERS *+     CLOUDY    28  21  74 NW12      30.06  WCI  18
FRANKFORT +    MOSUNNY   31  20  61 NW14      30.09F WCI  21
GREENWOOD *+   CLOUDY    32  16  51 N13       30.06F WCI  22
INDIANAPOLIS   FLURRIES  31  20  63 NW16G25   30.06S WCI  20
-EAGLE CREEK   CLOUDY    31  17  56 N16       30.07S WCI  20
KOKOMO *+        N/A     30  16  55 N17       30.06S WCI  18
MARION +       CLOUDY    29  15  55 NW10      30.06S WCI  20
MT COMFORT *+  PTSUNNY   30  16  55 N13       30.07S WCI  20
SHELBYVILLE    CLOUDY    34  17  50 NW15      30.05F WCI  24
ZIONSVILLE +   CLOUDY    32  15  51 NW14      30.07F WCI  22

$$

INZ033-034-041-042-049-050-058-059-272100-
EAST CENTRAL INDIANA

CITY           SKY/WX    TMP DP  RH WIND       PRES   REMARKS
MUNCIE         CLOUDY    30  17  58 NW15      30.04F WCI  19

$$

INZ060-061-067>069-081>083-085>088-272100-
SOUTHWEST INDIANA

CITY           SKY/WX    TMP DP  RH WIND       PRES   REMARKS
EVANSVILLE     CLOUDY    39  23  52 N15G23    30.10S
HUNTINGBURG *+ PTSUNNY   37  25  60 NW16G23   30.08S
WASHINGTON +   CLOUDY    36  21  54 N14G20    30.08F

$$

INZ062-063-066-070>080-084-089>092-272100-
SOUTH CENTRAL AND SOUTHEAST INDIANA

CITY           SKY/WX    TMP DP  RH WIND       PRES   REMARKS
BLOOMINGTON    CLOUDY    34  22  61 N10       30.06S WCI  26
NORTH VERNON + CLOUDY    36  25  64 NW20      30.05S
SEYMOUR +      CLOUDY    37  21  52 N15       30.05F

$$




USA.gov is the U.S. government's official web portal to all federal, state and local government web resources and services.